map of RME home
RME - Airport
Location
City:  Rome, New York, United States
Name:Griffiss International Airport
ICAO:KRME
IATA:RME
FAA LID:RME

Details
Type:Airport (Part 139 Class IV)
Use:Public/Civil
Latitude:4314'02"N (43.233806)
Longitude:7524'25"W (-75.407027)
Datum:WGS 1984
Elevation:503 ft (153 m)
Variation:12.78W (WMM2015 magnetic declination)
0.04 annual change
Runways:1
Longest:11821 × 200 ft (3603 × 61 m), paved

Time
Time Zone:UTC-5 (DST-4)
Local Time:

Weather
METAR:KRME 220453Z AUTO 04005KT 10SM CLR 11/07 A2999 RMK AO2 SLP153 T01060072 402670094
TAF:KRME 220520Z 2206/2306 VRB03KT P6SM SKC
FM221300 11006KT P6SM SKC
FM222000 13007KT P6SM BKN250
FM230100 VRB04KT P6SM BKN110

Related Locations
Nearby:
Farthest:YAUG: 11599 mi / 18666 km
Augusta [Augusta Airport], WA, AU

Find:

   beyond  
but within

Other Information
Maps:
NOTAMs:
Links:
Sources:

  
  • flag of United States
  • flag of New York
  

Airport Diagram

Airport diagram for RME

Airport diagram PDF

Sectional Chart

Flight Planning
at skyvector.com

Satellite Image

Google Maps Satellite view

 

Copyright © 2004-2018 Karl L. Swartz. All rights reserved.
The Great Circle Mapper name and logo are trademarks of the Great Circle Mapper.
All other trademarks mentioned herein belong to their respective owners.
Please see credits for attibutions and further copyright information.

  Follow gcmap on Facebook Follow gcmap on Twitter Follow gcmap on Google+ GCmap on LinkedIn

hCard Microformat

Geo Microformat